Terminal Aerodrome Forecast
Issued by NWS Pueblo, CO

Home | Current Version | Previous Version | Text Only | Print | Product List | Glossary On
Versions: 1 2 3 4 5 6 7 8 9 10 11 12 13 14 15 16
000
FTUS45 KPUB 242232 AAA
TAFALS
TAF AMD
KALS 242232Z 2423/2518 VRB06KT P6SM FEW150
      TEMPO 2423/2501 24012G22KT=

USA.gov is the U.S. government's official web portal to all federal, state and local government web resources and services.